Cloverdale, Indiana, United States (46120)
Lat: 39.51N, Lon: 86.79W
Wx Zone: INZ045
Local Info
Past Weather Observations for Wednesday, July 29, 2015

NOTE: This archive is for the closest National Weather Service station to Cloverdale. Information may differ from the station used for current weather conditions.

Click here for Long-term Archive

Time Weather Temperature Dewpoint Humidity Pressure Winds Precip Visibility
23:53
Clear
72°F / 22°C 64°F / 18°C 78% 30.06 in
(1018 mb)
Calm - 10SM
22:53
Clear
75°F / 24°C 64°F / 18°C 69% 30.06 in
(1018 mb)
NNW 3.5 mph
(NNW 6 kph)
- 10SM
21:53
Clear
77°F / 25°C 66°F / 19°C 69% 30.06 in
(1018 mb)
Calm - 10SM
20:53
Partly Cloudy
81°F / 27°C 66°F / 19°C 62% 30.04 in
(1017 mb)
Variable 5.8 mph
(Variable 9 kph)
- 10SM
19:53
Clear
81°F / 27°C 75°F / 24°C 84% 30.01 in
(1016 mb)
NW 4.6 mph
(NW 7 kph)
- 10SM
18:53
Clear
82°F / 28°C 75°F / 24°C 79% 29.98 in
(1015 mb)
NW 5.8 mph
(NW 9 kph)
- 10SM
17:53
Clear
84°F / 29°C 77°F / 25°C 79% 29.98 in
(1015 mb)
NW 4.6 mph
(NW 7 kph)
- 9SM
16:53
Partly Cloudy
84°F / 29°C 79°F / 26°C 84% 29.98 in
(1015 mb)
N 3.5 mph
(N 6 kph)
- 10SM
15:53
Clear
84°F / 29°C 79°F / 26°C 84% 30.01 in
(1016 mb)
Calm - 10SM
14:53
Partly Cloudy
86°F / 30°C 79°F / 26°C 79% 29.98 in
(1015 mb)
Variable 5.8 mph
(Variable 9 kph)
- 10SM
14:18
Mostly Cloudy
90°F / 32°C 79°F / 26°C 71% 29.98 in
(1015 mb)
N 9.2 mph
(N 15 kph)
- 10SM
14:10
Mostly Cloudy
90°F / 32°C 79°F / 26°C 71% 29.98 in
(1015 mb)
Variable 6.9 mph
(Variable 11 kph)
- 10SM
13:53
Partly Cloudy
90°F / 32°C 77°F / 25°C 67% 29.98 in
(1015 mb)
Variable 3.5 mph
(Variable 6 kph)
- 10SM
12:53
Partly Cloudy
90°F / 32°C 79°F / 26°C 71% 30.01 in
(1016 mb)
WNW 6.9 mph
(WNW 11 kph)
- 10SM
11:53
Clear
90°F / 32°C 75°F / 24°C 63% 30.01 in
(1016 mb)
Calm - 10SM
10:53
Clear
84°F / 29°C 75°F / 24°C 74% 30.01 in
(1016 mb)
Calm - 10SM
09:53
Clear
84°F / 29°C 75°F / 24°C 74% 30.01 in
(1016 mb)
Calm - 10SM
08:53
Clear
82°F / 28°C 75°F / 24°C 79% 30.01 in
(1016 mb)
Calm 0.00 in
(0.00 mm)
10SM
07:53
Overcast
Light Rain
77°F / 25°C 73°F / 23°C 89% 30.01 in
(1016 mb)
SSW 3.5 mph
(SSW 6 kph)
0.06 in
(1.52 mm)
8SM
07:34
Overcast
Light Rain
75°F / 24°C 73°F / 23°C 94% 30.01 in
(1016 mb)
SSW 4.6 mph
(SSW 7 kph)
0.06 in
(1.52 mm)
6SM
07:27
Overcast
Thunder Storms
77°F / 25°C 75°F / 24°C 94% 30.01 in
(1016 mb)
Variable 4.6 mph
(Variable 7 kph)
0.05 in
(1.27 mm)
8SM
07:12
Overcast
Thunder Storms
75°F / 24°C 73°F / 23°C 94% 30.01 in
(1016 mb)
SSW 6.9 mph
(SSW 11 kph)
0.05 in
(1.27 mm)
2 1/2SM
06:53
Mostly Cloudy
Fog And Mist
75°F / 24°C 73°F / 23°C 94% 30.01 in
(1016 mb)
NW 4.6 mph
(NW 7 kph)
- 6SM
05:53
Clear
Fog And Mist
73°F / 23°C 73°F / 23°C 100% 30.01 in
(1016 mb)
Calm - 6SM
04:53
Clear
75°F / 24°C 73°F / 23°C 94% 30.01 in
(1016 mb)
Calm - 7SM
03:53
Clear
Fog And Mist
73°F / 23°C 73°F / 23°C 100% 29.98 in
(1015 mb)
Calm - 6SM
02:53
Clear
75°F / 24°C 73°F / 23°C 94% 29.98 in
(1015 mb)
Calm - 9SM
01:53
Clear
75°F / 24°C 72°F / 22°C 89% 29.98 in
(1015 mb)
Calm - 9SM
00:53
Clear
Fog And Mist
73°F / 23°C 73°F / 23°C 100% 30.01 in
(1016 mb)
Calm - 5SM
Time Weather Temperature Dewpoint Humidity Pressure Winds Precip Visibility


Weather for websites

WeatherForYou.com, LLC is not responsible for any damages or problems caused by this service. Current weather conditions are obtained from the closest station including government and personal stations which may have varying degrees of accuracy. Weather forecasts are derived from the NOAA NDFD. Like all things, this site belongs to Jesus Christ... He just trusts us to maintain it. If you have any questions or comments email webmaster@weatherforyou.com

Copyright © 2015, WeatherForYou.com LLC. All rights reserved.